Theta_e
337 338 343 346 356 352 353 353 348 349 348 344 346 348 346 345 346 349 347 348 345 343 345 350 348 348 349 348 349 349 344 344 343 342 343 343 343 343 343 345 346 349 348 347 348 348 348 347 347
334 337 342 348 353 353 350 349 349 347 344 343 346 345 345 343 343 349 348 348 346 346 346 346 347 348 349 349 348 347 344 343 339 338 339 339 339 340 341 341 341 344 346 346 346 344 344 346 345
337 335 346 346 348 351 349 346 348 344 342 343 345 340 342 339 337 345 348 349 347 347 345 347 347 348 348 347 346 345 343 341 339 339 337 337 337 338 338 339 339 341 344 344 345 346 345 345 344
334 338 338 347 350 346 345 344 346 345 341 338 339 339 335 336 338 345 348 349 349 346 345 348 348 347 346 346 345 343 341 341 337 342 339 336 338 337 337 338 338 340 341 339 342 345 345 345 345
336 339 346 348 348 343 341 340 345 347 341 339 335 337 337 331 333 345 349 350 349 343 343 345 349 348 348 345 341 341 343 341 336 335 331 335 335 335 334 335 334 337 337 334 335 340 342 343 344
335 339 345 345 344 342 337 338 343 345 340 335 334 335 336 330 331 346 349 349 343 341 341 342 348 349 347 341 339 342 341 336 331 328 329 333 333 334 333 331 331 332 333 331 330 334 336 339 342
330 334 337 341 343 344 339 335 342 343 341 337 333 336 334 329 333 345 348 345 341 339 339 340 346 347 343 338 337 331 326 327 327 323 326 324 331 331 330 329 328 328 328 328 325 321 325 333 337
336 332 332 334 336 339 337 336 337 341 340 329 331 335 332 330 334 344 347 343 341 340 339 338 341 345 340 335 336 327 320 318 318 316 315 317 323 326 323 325 325 325 325 322 320 320 319 322 331
333 330 332 332 333 332 333 335 329 331 337 330 330 331 327 327 339 345 345 342 340 340 339 338 338 340 337 333 332 327 316 313 311 312 310 312 319 321 321 320 322 321 320 316 314 316 316 317 322
329 328 326 329 330 331 331 331 331 328 332 331 330 328 323 329 339 343 343 341 340 340 339 339 337 336 334 330 328 324 324 321 317 315 312 313 315 316 317 315 311 311 307 306 307 309 311 313 314
326 322 324 323 326 329 330 329 328 329 331 331 331 331 326 328 337 339 339 338 338 338 340 339 336 334 333 328 326 321 316 313 311 310 311 312 312 310 310 311 309 308 305 307 306 307 308 309 310
324 323 324 324 325 327 326 326 327 328 330 328 327 328 327 327 334 336 336 336 336 337 338 339 336 333 331 328 322 316 313 312 311 310 310 310 310 309 309 308 308 307 307 306 306 306 306 306 306
324 322 323 323 324 325 325 325 325 325 325 326 325 323 325 326 328 333 334 334 335 336 338 339 337 331 329 326 319 315 313 312 311 310 309 310 310 309 308 308 307 307 306 306 306 305 305 305 304
322 321 321 321 322 323 324 323 323 322 324 324 325 325 325 325 326 327 331 333 334 335 337 338 336 330 327 324 319 315 313 312 311 310 309 309 310 309 309 308 307 307 306 306 305 305 305 304 304
321 320 320 321 321 322 323 323 323 323 322 322 321 322 323 325 324 325 326 330 332 334 335 336 335 330 325 321 318 316 314 312 311 311 309 309 309 309 309 308 307 307 306 305 305 304 304 304 304
320 319 320 321 322 322 322 320 321 321 321 321 321 321 322 322 323 323 323 325 329 331 333 334 333 328 323 320 318 316 314 312 311 310 309 309 309 309 308 307 307 307 306 306 305 305 305 304 304
321 316 318 318 318 320 322 320 319 319 319 319 318 318 319 320 320 321 321 322 324 327 330 333 332 326 323 320 318 316 314 312 311 310 309 308 308 308 308 307 307 306 306 306 305 305 305 305 305
315 315 315 317 317 317 317 318 318 318 318 319 319 319 319 319 319 319 320 321 321 323 326 329 332 327 324 321 318 316 313 312 312 310 310 308 308 307 307 307 307 306 306 306 305 305 304 304 304
315 315 316 317 317 317 318 318 318 318 318 319 319 319 319 318 319 318 320 320 320 321 323 324 329 328 325 321 318 316 314 312 311 309 309 308 308 307 306 306 306 306 305 305 305 305 305 305 303
317 317 317 316 316 317 318 319 319 319 320 319 319 319 319 320 320 320 319 319 319 320 321 321 323 327 325 321 318 317 315 313 311 309 308 308 308 306 306 306 306 306 305 305 304 304 304 304 303
317 318 318 318 318 318 320 322 322 321 319 319 319 320 320 320 321 321 321 320 319 319 319 320 321 322 324 320 318 316 314 312 309 308 307 307 307 306 305 305 305 305 305 305 305 304 304 304 303
319 318 317 319 320 322 320 323 322 321 320 319 320 320 320 319 317 317 317 316 317 318 318 318 319 319 320 319 317 315 313 310 310 309 308 307 306 306 305 304 304 304 304 304 304 303 303 303 303
318 318 318 319 320 321 322 323 320 321 321 319 320 318 318 318 317 316 316 316 316 315 316 317 317 317 317 317 316 314 314 313 312 310 308 307 305 305 305 304 304 303 304 303 303 302 302 302 302
316 318 320 320 320 322 320 322 321 320 319 319 318 316 314 313 314 313 313 313 314 315 316 315 316 316 316 315 314 314 314 315 313 310 308 307 306 305 304 304 303 303 303 303 303 302 302 302 302
320 321 320 321 324 322 320 320 320 319 318 316 315 313 311 310 310 311 312 312 313 314 315 314 314 315 315 314 313 313 314 314 313 310 308 307 306 305 304 304 303 303 303 303 302 302 302 302 302
320 319 320 319 317 318 317 319 319 318 318 316 315 313 309 308 309 310 311 311 312 313 314 313 313 315 314 313 312 311 312 313 313 310 309 308 307 306 305 304 303 303 303 302 302 302 302 302 302
318 319 318 322 319 319 318 318 317 317 317 311 311 310 307 308 309 309 309 310 312 312 313 313 311 313 313 312 311 310 311 312 311 310 309 308 307 306 305 304 303 302 302 302 301 301 302 301 301
310 310 309 310 308 311 312 312 313 313 308 307 306 306 307 308 309 309 311 310 310 311 313 314 311 310 311 310 310 309 310 310 310 310 309 308 307 306 305 304 303 302 302 301 301 301 301 301 301
305 307 309 311 311 311 313 312 310 305 303 303 305 307 308 309 310 311 310 310 310 311 312 314 313 309 309 309 309 308 309 309 309 309 308 307 306 305 304 303 303 302 301 301 301 301 301 301 300
306 310 305 307 307 306 307 307 303 303 303 305 306 308 308 308 309 309 309 309 309 310 311 313 313 311 308 308 308 307 308 308 308 308 308 307 306 305 304 303 302 302 301 301 301 300 300 300 300
Wind_Speed
5 2 6 4 4 4 1 3 1 6 5 4 6 6 2 3 5 4 6 12 10 13 10 8 7 6 9 8 8 10 9 8 7 7 9 7 5 4 4 8 11 13 11 9 9 7 7 9 9
1 7 3 2 5 5 3 3 6 5 3 5 4 6 4 2 1 4 10 13 12 12 10 8 9 7 10 10 9 10 11 10 12 12 12 11 12 12 12 8 6 7 10 11 10 7 7 7 8
3 5 3 3 3 7 5 3 6 7 6 7 5 4 2 0 3 3 6 15 14 11 9 9 12 10 11 10 10 11 12 12 10 10 11 10 9 10 10 11 11 12 11 8 9 11 7 7 6
4 4 3 6 8 2 3 1 6 8 5 5 3 4 3 3 4 7 13 16 14 11 10 10 13 12 12 12 12 12 12 11 10 10 10 10 9 10 10 11 12 12 11 9 6 9 9 7 6
2 3 6 7 10 5 4 1 8 11 8 7 8 3 3 5 7 10 18 17 15 12 10 9 13 14 14 13 11 12 11 11 9 8 7 9 9 8 9 10 11 10 10 12 7 4 5 5 6
3 3 8 11 12 5 3 4 9 11 8 6 7 5 3 5 12 15 16 16 13 12 11 10 13 16 15 13 13 14 12 9 8 6 6 8 8 8 8 9 9 10 9 10 10 11 10 6 7
4 4 12 12 13 12 6 6 11 12 11 10 1 6 1 9 14 16 17 15 14 13 12 12 14 16 15 14 14 12 10 9 6 5 5 5 8 8 8 8 8 8 9 8 5 6 5 3 3
2 3 11 11 12 15 3 7 5 11 14 3 5 5 3 8 18 17 16 15 15 14 14 14 15 16 16 14 14 13 11 8 7 5 5 5 7 7 7 8 7 8 8 5 3 4 4 4 4
1 5 12 15 12 14 3 9 5 1 10 5 9 8 3 9 18 18 18 17 17 16 16 16 17 19 18 15 14 14 11 9 6 6 6 7 6 6 6 7 8 7 8 4 3 3 4 5 5
3 5 12 7 9 10 8 10 8 6 12 12 13 12 7 15 21 22 22 22 22 21 20 19 19 20 20 17 15 14 13 10 8 8 7 6 6 6 7 7 5 6 5 4 5 4 4 5 4
1 6 5 4 7 7 9 8 5 9 14 14 16 17 14 17 21 22 23 23 24 23 22 23 22 22 22 19 18 16 13 11 10 10 9 8 7 6 5 5 4 4 5 3 5 6 6 6 5
5 6 6 6 3 5 10 8 12 15 18 6 9 9 11 17 21 26 26 26 25 25 25 25 24 24 24 20 20 17 15 13 12 11 11 9 7 6 5 5 5 4 3 3 3 4 6 6 7
8 7 7 9 11 12 12 17 18 17 15 15 12 7 12 16 23 26 26 24 23 25 26 27 27 27 26 24 21 19 17 15 13 12 12 10 9 8 7 6 5 4 3 3 3 3 3 5 5
2 10 14 12 15 11 13 19 14 9 9 14 16 18 16 17 22 24 26 27 27 27 28 29 31 30 28 27 23 21 18 16 15 14 13 12 10 9 8 7 6 5 4 3 3 2 2 2 3
6 11 13 12 9 9 6 18 17 16 16 20 20 19 18 19 22 26 29 30 30 31 30 32 33 32 31 29 25 22 19 18 16 15 14 13 12 11 9 8 7 6 5 4 3 2 2 1 1
7 7 8 4 3 2 6 21 16 4 7 12 14 14 16 19 21 28 29 29 31 30 31 33 33 33 32 29 26 23 21 20 18 16 15 15 14 13 11 10 9 8 7 5 4 3 2 1 1
3 11 12 14 3 4 10 17 11 5 7 16 19 19 17 16 19 29 28 31 32 32 32 33 34 33 34 30 26 24 22 21 19 18 17 17 16 15 12 11 10 10 8 7 5 4 3 2 2
11 12 14 14 4 7 18 25 27 25 22 22 23 22 22 22 24 29 26 30 31 32 33 34 35 35 34 30 28 24 22 22 21 20 19 19 17 16 14 12 11 11 9 8 7 5 3 2 3
12 13 18 20 21 21 21 23 24 25 23 23 23 23 23 24 23 26 21 23 27 31 34 36 37 39 36 34 31 29 29 25 23 21 20 20 18 18 16 13 13 13 11 10 9 6 5 3 3
11 15 18 17 13 14 19 29 28 27 26 23 20 19 21 19 17 18 19 19 24 30 33 34 38 38 40 38 37 32 30 27 25 22 22 23 21 20 18 16 16 15 12 11 10 9 6 4 1
11 13 16 19 20 16 18 23 10 9 8 10 11 14 17 16 16 16 18 17 16 23 30 35 40 41 43 41 34 28 24 21 25 26 25 26 24 22 20 19 17 16 14 13 12 10 8 6 3
13 5 11 14 11 10 12 16 16 6 2 3 8 13 17 19 18 16 19 23 20 20 24 30 35 39 41 40 36 39 36 31 31 31 29 27 27 25 23 21 19 18 16 14 13 11 9 7 6
11 7 11 14 16 16 12 8 3 11 9 11 17 16 16 16 18 21 19 26 25 24 23 25 30 36 39 42 42 42 39 35 28 28 29 28 27 26 24 23 21 20 18 16 15 13 12 10 8
12 10 14 9 9 7 8 14 12 7 3 15 14 17 18 19 19 20 29 31 28 28 26 22 27 32 37 41 44 44 44 38 31 31 30 30 28 27 26 25 23 22 20 18 17 15 13 12 10
10 11 7 5 5 9 3 9 18 20 12 15 16 20 26 26 23 22 22 27 33 34 32 28 23 31 33 40 44 44 43 42 38 35 33 32 30 29 29 29 26 24 22 20 18 17 15 14 13
10 5 6 9 11 18 18 14 10 12 8 14 17 18 23 27 23 24 24 32 33 34 31 32 26 26 29 35 40 41 40 38 38 36 33 33 33 32 30 31 28 25 23 21 20 18 17 14 14
4 6 10 14 21 18 15 21 23 17 13 28 28 28 30 27 25 27 27 32 32 32 33 31 28 23 24 29 34 37 39 40 39 36 34 34 32 29 30 30 29 27 25 23 20 18 18 15 14
8 11 9 7 8 13 14 23 21 20 28 29 32 34 32 30 30 25 21 29 32 29 30 30 27 23 21 23 29 31 35 38 37 35 35 33 31 29 30 30 29 27 26 24 21 18 17 16 15
14 7 5 6 9 12 18 14 19 29 32 32 30 28 28 29 27 24 23 28 28 29 30 30 26 23 20 20 23 28 31 34 36 35 34 32 31 31 30 31 30 29 27 25 22 19 16 17 15
3 8 9 9 19 18 19 26 26 26 28 27 27 23 25 26 24 23 23 26 27 28 31 30 27 25 21 19 20 25 28 31 34 35 33 32 32 30 30 31 30 29 28 25 23 21 17 17 15
Wind_Direction
325 168 167 200 242 251 74 149 36 163 174 148 158 190 252 334 322 0 141 155 148 153 158 156 170 156 139 130 121 117 114 114 115 96 90 91 77 93 79 49 46 48 54 51 59 70 68 61 66
219 145 188 254 261 276 74 147 193 172 98 169 167 196 235 313 202 118 150 169 160 160 161 161 167 151 142 140 130 122 131 112 98 91 85 79 74 68 64 64 56 52 52 60 59 58 66 67 64
177 194 243 247 264 279 327 193 182 175 160 187 183 256 308 197 172 168 155 168 166 166 167 169 159 166 158 149 131 124 119 115 107 96 87 82 79 72 68 63 58 54 54 64 64 63 61 65 67
212 194 207 248 260 262 299 165 184 166 177 210 219 217 203 205 160 171 171 168 170 170 169 177 161 171 169 146 135 131 124 120 114 108 96 87 84 76 74 70 64 63 60 54 84 72 66 66 64
245 240 243 252 263 271 232 254 187 193 175 191 205 245 236 186 167 160 162 171 176 174 173 171 167 169 154 157 152 148 139 132 123 117 108 95 90 85 77 74 65 68 61 52 61 73 75 67 72
231 277 250 261 260 257 244 205 199 212 199 161 205 242 247 148 173 171 173 177 182 180 176 175 178 167 166 166 154 147 147 145 145 132 116 105 98 100 92 80 72 70 63 58 55 59 58 65 78
278 262 269 274 270 263 259 180 209 219 218 215 257 237 72 189 184 179 182 185 187 188 184 182 179 180 180 167 161 163 162 159 160 154 132 116 110 105 94 83 77 77 71 64 58 59 55 57 81
284 266 260 256 267 268 221 190 253 230 239 84 208 240 242 183 177 179 185 190 193 193 194 193 186 183 180 177 169 169 173 176 174 177 173 156 123 111 98 78 75 79 80 75 66 67 55 52 78
278 251 259 263 259 271 214 215 191 315 237 209 204 256 87 157 169 177 186 194 199 202 202 199 194 190 187 182 178 173 177 181 184 171 163 134 131 115 89 114 93 87 80 90 97 93 78 57 49
242 252 271 307 286 281 277 254 271 234 228 229 235 227 197 169 179 186 193 199 203 204 205 202 199 196 191 186 184 180 173 169 172 166 157 150 138 137 131 115 119 100 88 72 86 96 79 59 48
165 253 338 286 285 284 279 267 249 247 254 250 244 240 199 193 195 202 206 209 209 207 204 204 203 200 196 194 188 188 186 180 178 173 167 158 148 139 140 135 121 104 93 76 69 73 74 60 58
261 255 270 290 314 281 269 285 257 251 254 302 284 268 195 207 205 208 212 214 211 209 209 208 206 205 203 201 197 196 191 188 186 184 175 168 167 160 160 157 146 128 117 100 83 76 83 75 69
243 269 278 267 281 270 264 258 263 264 257 264 246 234 220 219 220 221 223 221 217 213 211 209 208 208 206 205 202 201 196 193 192 185 187 180 176 172 167 167 162 151 138 129 106 93 87 84 80
331 285 282 279 269 258 255 265 261 255 255 263 257 248 239 232 227 227 226 225 220 218 215 212 210 208 208 207 205 204 201 195 193 192 191 187 181 177 175 175 172 162 160 151 136 124 107 90 89
292 293 289 263 266 256 266 266 248 273 267 265 269 264 257 247 242 235 230 228 224 222 218 213 211 209 209 209 208 205 204 198 197 197 195 192 185 182 182 182 181 179 174 166 158 141 121 102 90
272 269 293 122 210 208 215 279 289 311 256 270 284 278 273 263 251 247 243 236 232 229 220 216 212 209 209 209 207 207 207 203 201 200 198 196 193 187 184 187 187 181 179 180 182 180 166 157 314
197 284 286 301 209 269 221 285 282 225 267 283 277 272 267 261 252 248 244 236 231 228 224 219 214 212 210 209 209 209 209 205 204 203 201 198 195 192 189 189 188 182 185 188 190 193 208 231 293
303 286 286 279 283 252 283 274 283 281 276 271 269 269 263 260 255 251 240 234 231 228 224 221 215 215 211 207 208 209 208 208 207 206 204 199 197 194 191 190 189 189 187 191 194 204 208 235 293
288 282 281 282 290 294 277 280 281 284 278 266 263 266 268 266 268 264 259 242 234 229 223 219 215 214 207 203 203 205 206 206 207 207 205 200 199 196 192 192 192 193 195 197 196 200 211 234 306
266 277 283 288 290 295 293 289 288 275 272 273 273 274 274 285 291 283 270 252 241 235 229 226 220 215 209 203 203 207 207 207 207 204 203 200 200 198 195 194 195 196 194 195 199 204 213 224 295
265 269 285 293 310 283 302 288 291 296 279 284 272 277 291 297 301 321 332 315 272 256 243 230 221 217 212 208 202 199 204 203 201 205 202 202 200 198 196 197 197 197 197 201 203 204 205 220 231
289 321 288 296 308 299 15 298 316 327 317 306 328 358 20 13 14 10 0 352 329 290 267 253 238 228 219 211 201 196 193 194 203 200 200 198 198 199 198 199 198 199 199 202 204 203 205 207 223
291 342 307 292 282 294 274 249 211 310 355 74 50 42 33 22 14 7 360 353 349 342 305 267 248 236 225 215 208 200 202 207 205 200 196 196 196 198 199 199 199 200 200 203 203 202 204 209 217
310 300 287 270 267 258 279 220 300 36 91 6 19 21 15 9 3 355 349 345 342 341 338 297 261 244 230 220 214 209 206 205 200 195 191 193 194 197 200 200 201 202 201 200 202 205 209 210 213
332 323 298 245 218 267 58 282 255 308 30 40 23 13 4 356 352 345 343 339 338 336 337 328 280 254 240 226 220 219 215 209 203 196 190 188 190 195 198 198 200 201 199 198 200 204 208 211 218
305 308 282 288 298 299 299 261 261 326 329 36 354 347 349 343 339 338 336 332 328 329 333 332 315 268 250 236 227 224 221 215 207 200 195 191 190 193 195 196 199 199 197 198 201 204 207 212 221
19 284 334 286 276 273 259 270 275 298 360 343 333 333 336 337 337 329 326 329 326 326 330 330 324 295 260 247 235 227 221 214 208 203 198 193 193 193 192 193 195 196 197 198 201 205 209 211 223
12 336 301 269 282 275 281 308 297 337 333 331 334 328 330 334 329 325 332 331 325 324 326 329 327 309 280 256 240 232 226 219 213 208 199 192 190 188 187 189 192 193 196 199 200 206 214 216 222
310 302 295 313 279 287 296 277 343 319 318 321 325 329 326 325 326 326 327 332 329 327 329 327 331 320 295 267 244 233 226 221 215 211 204 194 187 185 186 188 190 192 195 199 201 208 213 219 227
180 137 315 289 292 281 283 277 291 306 309 311 316 331 320 314 321 315 314 321 328 331 330 328 329 329 306 281 251 239 227 217 214 211 205 194 187 185 187 188 190 193 196 198 203 209 214 220 230